Time,TemperatureF,DewpointF,PressureIn,WindDirection,WindDirectionDegrees,WindSpeedMPH,WindSpeedGustMPH,Humidity,HourlyPrecipIn,Conditions,Clouds,dailyrainin,SoftwareType,DateUTC
2013-11-22 11:35:00,31.1,24.7,30.46,WSW,256,4.0,8.0,77,0.00,,,0.00,Wunderground v.1.15,2013-11-22 17:35:00,
2013-11-22 11:40:00,31.2,24.5,30.46,SW,231,3.0,3.0,76,0.00,,,0.00,Wunderground v.1.15,2013-11-22 17:40:00,
2013-11-22 11:45:00,31.5,24.2,30.46,West,277,2.0,8.0,74,0.00,,,0.00,Wunderground v.1.15,2013-11-22 17:45:00,
2013-11-22 11:50:00,31.6,24.6,30.47,West,271,2.0,8.0,75,0.00,,,0.00,Wunderground v.1.15,2013-11-22 17:50:00,
2013-11-22 11:55:00,32.1,24.4,30.47,WNW,296,2.0,8.0,73,0.00,,,0.00,Wunderground v.1.15,2013-11-22 17:55:00,
2013-11-22 12:00:00,31.9,23.6,30.46,NW,311,4.0,4.0,71,0.00,,,0.00,Wunderground v.1.15,2013-11-22 18:00:00,
2013-11-22 12:05:00,31.8,23.8,30.47,WNW,292,4.0,6.0,72,0.00,,,0.00,Wunderground v.1.15,2013-11-22 18:05:00,
2013-11-22 12:10:00,31.8,22.8,30.46,WNW,296,3.0,11.0,69,0.00,,,0.00,Wunderground v.1.15,2013-11-22 18:10:00,
2013-11-22 12:20:00,32.2,23.8,30.45,WNW,292,3.0,3.0,71,0.00,,,0.00,Wunderground v.1.15,2013-11-22 18:20:00,
2013-11-22 12:25:00,32.6,24.2,30.45,WSW,240,1.0,8.0,71,0.00,,,0.00,Wunderground v.1.15,2013-11-22 18:25:00,
2013-11-22 12:35:00,32.5,23.5,30.45,SW,219,3.0,8.0,69,0.00,,,0.00,Wunderground v.1.15,2013-11-22 18:35:00,
2013-11-22 12:40:00,32.4,23.4,30.45,SW,236,3.0,8.0,69,0.00,,,0.00,Wunderground v.1.15,2013-11-22 18:40:00,
2013-11-22 12:45:00,32.1,22.7,30.45,SW,218,2.0,8.0,68,0.00,,,0.00,Wunderground v.1.15,2013-11-22 18:45:00,
2013-11-22 12:50:00,32.1,22.0,30.44,WNW,292,3.0,8.0,66,0.00,,,0.00,Wunderground v.1.15,2013-11-22 18:50:00,
2013-11-22 13:00:00,32.2,20.2,30.44,WSW,253,4.0,4.0,61,0.00,,,0.00,Wunderground v.1.15,2013-11-22 19:00:00,
2013-11-22 13:05:00,32.6,22.1,30.44,SW,217,3.0,5.0,65,0.00,,,0.00,Wunderground v.1.15,2013-11-22 19:05:00,
2013-11-22 13:10:00,32.4,21.9,30.44,SW,234,3.0,3.0,65,0.00,,,0.00,Wunderground v.1.15,2013-11-22 19:10:00,
2013-11-22 13:15:00,32.3,21.8,30.44,SW,219,4.0,4.0,65,0.00,,,0.00,Wunderground v.1.15,2013-11-22 19:15:00,
2013-11-22 13:20:00,32.1,21.7,30.44,SW,223,4.0,4.0,65,0.00,,,0.00,Wunderground v.1.15,2013-11-22 19:20:00,
2013-11-22 13:30:00,32.6,22.1,30.44,SW,232,4.0,12.0,65,0.00,,,0.00,Wunderground v.1.15,2013-11-22 19:30:00,
2013-11-22 13:35:00,32.8,22.0,30.44,SSW,202,4.0,12.0,64,0.00,,,0.00,Wunderground v.1.15,2013-11-22 19:35:00,
2013-11-22 13:40:00,33.0,20.2,30.44,SW,227,3.0,3.0,59,0.00,,,0.00,Wunderground v.1.15,2013-11-22 19:40:00,
2013-11-22 13:50:00,33.4,20.2,30.45,SW,232,2.0,2.0,58,0.00,,,0.00,Wunderground v.1.15,2013-11-22 19:50:00,
2013-11-22 13:55:00,33.4,20.6,30.44,WSW,257,2.0,12.0,59,0.00,,,0.00,Wunderground v.1.15,2013-11-22 19:55:00,
2013-11-22 14:00:00,33.2,20.8,30.44,West,270,2.0,12.0,60,0.00,,,0.00,Wunderground v.1.15,2013-11-22 20:00:00,
2013-11-22 14:05:00,32.9,20.9,30.44,South,190,4.0,12.0,61,0.00,,,0.00,Wunderground v.1.15,2013-11-22 20:05:00,
2013-11-22 14:15:00,32.8,19.2,30.45,SW,215,4.0,12.0,57,0.00,,,0.00,Wunderground v.1.15,2013-11-22 20:15:00,
2013-11-22 14:20:00,32.8,19.2,30.44,WSW,242,3.0,3.0,57,0.00,,,0.00,Wunderground v.1.15,2013-11-22 20:20:00,
2013-11-22 14:25:00,32.6,19.8,30.45,SSW,211,3.0,5.0,59,0.00,,,0.00,Wunderground v.1.15,2013-11-22 20:25:00,
2013-11-22 14:30:00,32.1,19.4,30.45,SW,229,4.0,4.0,59,0.00,,,0.00,Wunderground v.1.15,2013-11-22 20:30:00,
2013-11-22 14:40:00,32.0,18.5,30.45,SW,225,4.0,4.0,57,0.00,,,0.00,Wunderground v.1.15,2013-11-22 20:40:00,
2013-11-22 14:45:00,32.2,17.4,30.44,SW,221,4.0,5.0,54,0.00,,,0.00,Wunderground v.1.15,2013-11-22 20:45:00,
2013-11-22 14:50:00,32.0,17.2,30.44,SW,224,4.0,4.0,54,0.00,,,0.00,Wunderground v.1.15,2013-11-22 20:50:00,
2013-11-22 15:00:00,32.0,18.5,30.44,SW,229,4.0,12.0,57,0.00,,,0.00,Wunderground v.1.15,2013-11-22 21:00:00,
2013-11-22 15:05:00,32.1,19.0,30.43,WSW,237,3.0,12.0,58,0.00,,,0.00,Wunderground v.1.15,2013-11-22 21:05:00,
2013-11-22 15:10:00,31.9,18.4,30.44,SW,229,4.0,4.0,57,0.00,,,0.00,Wunderground v.1.15,2013-11-22 21:10:00,
2013-11-22 15:15:00,31.7,17.8,30.44,SW,223,4.0,12.0,56,0.00,,,0.00,Wunderground v.1.15,2013-11-22 21:15:00,
2013-11-22 15:25:00,31.0,15.8,30.45,SW,224,5.0,12.0,53,0.00,,,0.00,Wunderground v.1.15,2013-11-22 21:25:00,
2013-11-22 15:30:00,30.9,14.9,30.44,SW,227,5.0,5.0,51,0.00,,,0.00,Wunderground v.1.15,2013-11-22 21:30:00,
2013-11-22 15:35:00,30.8,15.2,30.44,SW,234,3.0,12.0,52,0.00,,,0.00,Wunderground v.1.15,2013-11-22 21:35:00,
2013-11-22 15:45:00,30.1,14.6,30.44,SW,221,2.0,5.0,52,0.00,,,0.00,Wunderground v.1.15,2013-11-22 21:45:00,
2013-11-22 15:50:00,29.9,14.4,30.44,SW,227,2.0,12.0,52,0.00,,,0.00,Wunderground v.1.15,2013-11-22 21:50:00,
2013-11-22 15:55:00,29.8,15.2,30.44,SW,217,1.0,12.0,54,0.00,,,0.00,Wunderground v.1.15,2013-11-22 21:55:00,
2013-11-22 16:00:00,29.7,15.9,30.44,WSW,253,0.0,12.0,56,0.00,,,0.00,Wunderground v.1.15,2013-11-22 22:00:00,
2013-11-22 16:05:00,29.5,15.7,30.44,SW,236,1.0,13.0,56,0.00,,,0.00,Wunderground v.1.15,2013-11-22 22:05:00,
2013-11-22 16:15:00,29.2,15.8,30.43,SW,236,0.0,13.0,57,0.00,,,0.00,Wunderground v.1.15,2013-11-22 22:15:00,
2013-11-22 16:20:00,29.0,15.7,30.43,SW,235,0.0,13.0,57,0.00,,,0.00,Wunderground v.1.15,2013-11-22 22:20:00,
2013-11-22 16:25:00,28.9,15.6,30.42,SW,226,1.0,13.0,57,0.00,,,0.00,Wunderground v.1.15,2013-11-22 22:25:00,
2013-11-22 16:30:00,28.9,16.0,30.42,SW,226,1.0,1.0,58,0.00,,,0.00,Wunderground v.1.15,2013-11-22 22:30:00,